When you browse on this site, cookies collect data to enhance your experience and personalize the content and advertising you see.
Visit our Privacy Policy to learn more. By continuing to use the site, you agree to this use of cookies and data.

Previsão horária em Abakumy

Hoje, 26 Setembro, Sábado

Tempo Temperatura Precipitação Vento Pressão Humidade
00:00 +17°C° 0 mm 4 m/s 746 mmHg 57%
01:00 +17°C° 0 mm 4 m/s 746 mmHg 58%
02:00 +15°C° 0 mm 4 m/s 746 mmHg 58%
03:00 +15°C° 0 mm 4 m/s 746 mmHg 61%
04:00 +15°C° 0 mm 4 m/s 746 mmHg 63%
05:00 +15°C° 0 mm 4 m/s 746 mmHg 65%
06:00 +17°C° 0 mm 4 m/s 746 mmHg 64%
07:00 +17°C° 0 mm 5 m/s 746 mmHg 63%
08:00 +17°C° 0 mm 5 m/s 746 mmHg 62%
09:00 +20°C° 0 mm 6 m/s 746 mmHg 56%
10:00 +22°C° 0 mm 6 m/s 747 mmHg 50%
11:00 +24°C° 0 mm 7 m/s 747 mmHg 44%
12:00 +24°C° 0 mm 7 m/s 746 mmHg 42%
13:00 +26°C° 0 mm 7 m/s 746 mmHg 40%
14:00 +27°C° 0 mm 7 m/s 746 mmHg 38%
15:00 +26°C° 0 mm 6 m/s 746 mmHg 42%
16:00 +24°C° 0 mm 6 m/s 746 mmHg 46%
17:00 +23°C° 0 mm 5 m/s 745 mmHg 50%
18:00 +22°C° 0 mm 5 m/s 745 mmHg 49%
19:00 +22°C° 0 mm 6 m/s 745 mmHg 49%
20:00 +21°C° 0 mm 6 m/s 746 mmHg 49%
21:00 +21°C° 0 mm 6 m/s 746 mmHg 45%
22:00 +21°C° 0 mm 6 m/s 746 mmHg 41%
23:00 +20°C° 0 mm 6 m/s 746 mmHg 38%

Amanhã, 27 Setembro, Domingo

Tempo Temperatura Precipitação Vento Pressão Humidade
00:00 +20°C° 0 mm 6 m/s 746 mmHg 38%
01:00 +19°C° 0 mm 6 m/s 746 mmHg 38%
02:00 +17°C° 0 mm 6 m/s 746 mmHg 38%
03:00 +17°C° 0 mm 6 m/s 746 mmHg 39%
04:00 +17°C° 0 mm 6 m/s 746 mmHg 40%
05:00 +17°C° 0 mm 7 m/s 746 mmHg 42%
06:00 +17°C° 0 mm 7 m/s 746 mmHg 42%
07:00 +18°C° 0 mm 7 m/s 746 mmHg 43%
08:00 +18°C° 0 mm 7 m/s 746 mmHg 44%
09:00 +20°C° 0 mm 8 m/s 746 mmHg 45%
10:00 +20°C° 0 mm 8 m/s 746 mmHg 46%
11:00 +21°C° 0 mm 8 m/s 746 mmHg 47%
12:00 +21°C° 0 mm 8 m/s 746 mmHg 48%
13:00 +21°C° 0 mm 7 m/s 746 mmHg 50%
14:00 +21°C° 0 mm 6 m/s 746 mmHg 52%
15:00 +20°C° 1.3 mm 5 m/s 746 mmHg 62%
16:00 +17°C° 1.3 mm 5 m/s 747 mmHg 72%
17:00 +17°C° 1.3 mm 4 m/s 747 mmHg 82%
18:00 +17°C° 0.3 mm 4 m/s 747 mmHg 85%
19:00 +16°C° 0.3 mm 3 m/s 748 mmHg 87%
20:00 +16°C° 0.3 mm 2 m/s 749 mmHg 90%
21:00 +14°C° 0.1 mm 3 m/s 749 mmHg 90%
22:00 +13°C° 0.1 mm 3 m/s 750 mmHg 91%
23:00 +12°C° 0.1 mm 3 m/s 750 mmHg 92%

Depois de amanhã, 28 Setembro, Segunda-feira

Tempo Temperatura Precipitação Vento Pressão Humidade
00:00 +11°C° 0 mm 3 m/s 750 mmHg 92%
01:00 +10°C° 0 mm 3 m/s 751 mmHg 92%
02:00 +10°C° 0 mm 3 m/s 751 mmHg 93%
03:00 +9°C° 0 mm 2 m/s 752 mmHg 93%
04:00 +9°C° 0 mm 2 m/s 752 mmHg 93%
05:00 +9°C° 0 mm 1 m/s 752 mmHg 93%
06:00 +10°C° 0 mm 1 m/s 753 mmHg 88%
07:00 +12°C° 0 mm 1 m/s 753 mmHg 82%
08:00 +13°C° 0 mm 1 m/s 753 mmHg 77%
09:00 +15°C° 0 mm 1 m/s 754 mmHg 69%
10:00 +18°C° 0 mm 1 m/s 754 mmHg 60%
11:00 +18°C° 0 mm 0 m/s 754 mmHg 52%
12:00 +20°C° 0 mm 1 m/s 754 mmHg 50%
13:00 +21°C° 0 mm 1 m/s 755 mmHg 47%
14:00 +21°C° 0 mm 1 m/s 755 mmHg 45%
15:00 +20°C° 0 mm 2 m/s 755 mmHg 50%
16:00 +19°C° 0 mm 2 m/s 754 mmHg 54%
17:00 +18°C° 0 mm 2 m/s 754 mmHg 59%
18:00 +17°C° 0 mm 2 m/s 754 mmHg 62%
19:00 +16°C° 0 mm 3 m/s 754 mmHg 64%
20:00 +14°C° 0 mm 3 m/s 754 mmHg 66%
21:00 +14°C° 0 mm 3 m/s 754 mmHg 68%
22:00 +14°C° 0 mm 3 m/s 754 mmHg 69%
23:00 +14°C° 0 mm 3 m/s 754 mmHg 71%

29 Setembro, Terça-feira

Tempo Temperatura Precipitação Vento Pressão Humidade
00:00 +14°C° 0 mm 3 m/s 753 mmHg 73%
01:00 +13°C° 0 mm 3 m/s 752 mmHg 75%
02:00 +13°C° 0 mm 4 m/s 752 mmHg 76%
03:00 +13°C° 0 mm 4 m/s 752 mmHg 78%
04:00 +13°C° 0 mm 4 m/s 751 mmHg 80%
05:00 +13°C° 0 mm 4 m/s 751 mmHg 82%
06:00 +14°C° 0 mm 4 m/s 750 mmHg 78%
07:00 +15°C° 0 mm 5 m/s 750 mmHg 75%
08:00 +16°C° 0 mm 5 m/s 749 mmHg 71%
09:00 +17°C° 0 mm 5 m/s 749 mmHg 66%
10:00 +20°C° 0 mm 6 m/s 749 mmHg 60%
11:00 +21°C° 0 mm 6 m/s 748 mmHg 55%
12:00 +22°C° 0 mm 6 m/s 748 mmHg 53%
13:00 +22°C° 0 mm 6 m/s 747 mmHg 52%
14:00 +23°C° 0 mm 6 m/s 747 mmHg 50%
15:00 +22°C° 0 mm 6 m/s 746 mmHg 53%
16:00 +21°C° 0 mm 7 m/s 746 mmHg 55%
17:00 +20°C° 0 mm 7 m/s 745 mmHg 58%
18:00 +20°C° 0 mm 7 m/s 745 mmHg 58%
19:00 +18°C° 0 mm 8 m/s 745 mmHg 58%
20:00 +18°C° 0 mm 8 m/s 745 mmHg 58%
21:00 +17°C° 0.3 mm 7 m/s 745 mmHg 60%
22:00 +16°C° 0.3 mm 7 m/s 745 mmHg 63%
23:00 +15°C° 0.3 mm 6 m/s 745 mmHg 65%

30 Setembro, Quarta-feira

Tempo Temperatura Precipitação Vento Pressão Humidade
00:00 +15°C° 0.9 mm 5 m/s 744 mmHg 70%
01:00 +14°C° 0.9 mm 4 m/s 744 mmHg 76%
02:00 +14°C° 0.9 mm 4 m/s 744 mmHg 82%
03:00 +14°C° 1.4 mm 5 m/s 744 mmHg 85%
04:00 +14°C° 1.4 mm 6 m/s 743 mmHg 89%
05:00 +14°C° 1.4 mm 6 m/s 743 mmHg 92%
06:00 +14°C° 1.6 mm 6 m/s 743 mmHg 93%
07:00 +14°C° 1.6 mm 5 m/s 743 mmHg 93%
08:00 +14°C° 1.6 mm 5 m/s 743 mmHg 93%
09:00 +14°C° 0.2 mm 4 m/s 744 mmHg 92%
10:00 +16°C° 0.2 mm 3 m/s 744 mmHg 91%
11:00 +16°C° 0.2 mm 3 m/s 745 mmHg 90%
12:00 +17°C° 0.3 mm 3 m/s 745 mmHg 85%
13:00 +18°C° 0.3 mm 4 m/s 745 mmHg 80%
14:00 +19°C° 0.3 mm 4 m/s 745 mmHg 75%
15:00 +17°C° 0.7 mm 5 m/s 746 mmHg 78%
16:00 +16°C° 0.7 mm 5 m/s 746 mmHg 81%
17:00 +15°C° 0.7 mm 6 m/s 746 mmHg 84%
18:00 +15°C° 0.1 mm 6 m/s 746 mmHg 85%
19:00 +14°C° 0.1 mm 6 m/s 746 mmHg 87%
20:00 +13°C° 0.1 mm 6 m/s 747 mmHg 88%
21:00 +13°C° 0 mm 5 m/s 747 mmHg 90%
22:00 +12°C° 0 mm 5 m/s 747 mmHg 91%
23:00 +12°C° 0 mm 5 m/s 747 mmHg 92%

1 Outubro, Quinta-feira

Tempo Temperatura Precipitação Vento Pressão Humidade
00:00 +12°C° 0 mm 5 m/s 747 mmHg 91%
01:00 +13°C° 0 mm 5 m/s 747 mmHg 90%
02:00 +13°C° 0 mm 5 m/s 747 mmHg 89%
03:00 +13°C° 0 mm 5 m/s 747 mmHg 90%
04:00 +13°C° 0 mm 5 m/s 747 mmHg 91%
05:00 +13°C° 0 mm 5 m/s 747 mmHg 91%
06:00 +13°C° 0 mm 5 m/s 748 mmHg 90%
07:00 +13°C° 0 mm 5 m/s 748 mmHg 89%
08:00 +13°C° 0 mm 5 m/s 748 mmHg 88%
09:00 +14°C° 0 mm 5 m/s 748 mmHg 84%
10:00 +15°C° 0 mm 5 m/s 748 mmHg 80%
11:00 +16°C° 0 mm 6 m/s 748 mmHg 75%
12:00 +17°C° 0.3 mm 6 m/s 748 mmHg 74%
13:00 +17°C° 0.3 mm 6 m/s 748 mmHg 73%
14:00 +17°C° 0.3 mm 6 m/s 748 mmHg 71%
15:00 +17°C° 1.2 mm 6 m/s 749 mmHg 74%
16:00 +16°C° 1.2 mm 6 m/s 749 mmHg 77%
17:00 +15°C° 1.2 mm 6 m/s 749 mmHg 80%
18:00 +15°C° 0.2 mm 6 m/s 749 mmHg 80%
19:00 +15°C° 0.2 mm 5 m/s 749 mmHg 80%
20:00 +14°C° 0.2 mm 5 m/s 749 mmHg 80%
21:00 +14°C° 0 mm 5 m/s 749 mmHg 80%
22:00 +13°C° 0 mm 4 m/s 750 mmHg 80%
23:00 +13°C° 0 mm 4 m/s 750 mmHg 81%
Mostrar mais